VABB

Chhatrapati Shivaji International Airport

Airport
ICAO code
VABB
IATA Code
BOM
Summary
ICAO Region
APAC
ICAO Territory
Location

Mumbai, Maharashtra

Serving
Mumbai
Elevation
37 ft
Coordinates
19° 5' 26" N , 72° 52' 2" E
KCC
Metar
Observation
VABB 270500Z 09008KT 1800 FU FEW100 29/17 Q1013 NOSIG
Station
Bombay / Santacruz
Date/Time
2023-01-27 05:00:00
Wind direction
90°
Wind speed
08 kts
Lowest cloud amount
few clouds
Temperature
29°C
Dew point
17°C
Humidity
48%
QNH
1013 hPa
Weather condition
n/a

Description

International airport serving the city of Mumbai (formerly Bombay), India.

Climatology

Tropical Savanna climate (Köppen climate classification Aw) - monthly mean temperatures above 18°C, and a pronounced dry season. A Tropical Savanna climate has more pronounced dry seasons than a Tropical Monsoon climate.

Runways

Designator Length Width Surface Rops
14/32 2925 46 ASP Yes/Yes
9/27 3445 45 ASP Yes/Yes

SKYbrary Partners:

Safety knowledge contributed by: